Retour au catalogue

USA 224

ActifMilitaireSSO
NORAD 37348·PAYLOAD·🇺🇸 United States

Lancé Jan 20, 2011 depuis Vandenberg Space Force Base

Loading…

Prochains Passages (prochaines 24 heures)

TLE

PériméSource: Mike McCants

Époque: Sep 18, 2024, 02:01 UTC

1 37348U 11002A   24262.08462643 0.00057000  00000-0  53026-3 0    02
2 37348  97.8772  37.0228 0503871 200.0756 159.9242 14.84682940    01

Suivez USA 224 en temps réel avec AllMySat

Download on the App Store